This demonstration page uses our WeatherBlox Daily Observations layout. Learn more.

Left ArrowRight Arrow

44.89941, -97.11507

Hourly Observations for July 23, 2016

Temp ( °F °C ) Dew Point ( °F °C ) Humidity (%) Winds ( mph kmh ) Pressure ( in mb ) Visibility ( mi km ) Precip ( " mm )
12:53 am 00:53 Clear 79 26.1 66 18.9 65 65 E 6 9 29.94 1014 10 16 0.00 0.00
1:53 am 01:53 Clear 78 25.6 66 18.9 67 67 E 6 9 29.89 1012 10 16 0.00 0.00
2:49 am 02:49 Mostly Cloudy 77 25 66 19 69 69 NNE 6 9 29.85 1011 10 16 0.00 0.00
2:53 am 02:53 Mostly Cloudy 77 25 66 18.9 69 69 NNE 6 9 29.90 1012 10 16 0.00 0.00
3:30 am 03:30 Partly Cloudy 77 25 67 19.4 71 71 E 6 9 29.85 1011 10 16 0.00 0.00
3:53 am 03:53 Clear 77 25 67 19.4 71 71 E 6 9 29.88 1012 10 16 0.00 0.00
5:39 am 05:39 Partly Cloudy 76 24.4 73 22.8 91 91 ESE 9 15 29.74 1007 10 16 0.00 0.00
5:48 am 05:48 Mostly Cloudy 75 24 73 23 94 94 ESE 8 13 29.74 1007 10 16 0.00 0.00
5:53 am 05:53 Mostly Cloudy 76 24.4 74 23.3 94 94 E 10 17 29.79 1009 9 14 0.00 0.00
6:53 am 06:53 Cloudy with Mist and Fog 75 23.9 73 22.8 94 94 E 8 13 29.78 1009 6 10 0.00 0.00
7:10 am 07:10 Cloudy with Nearby Thunderstorms 75 23.9 73 22.8 94 94 S 13 20 29.80 1009 8 13 0.00 0.00
7:18 am 07:18 Cloudy with Strong Thunderstorms 71 21.7 68 20 90 90 S 20 31 29.85 1011 2 3 0.12 3.05
7:20 am 07:20 Cloudy with Strong Thunderstorms 70 21.1 68 20 93 93 SSW 21 33 29.85 1011 1 2 0.20 5.08
7:24 am 07:24 Cloudy with Strong Thunderstorms 69 20.6 68 20 96 96 SSW 20 31 29.83 1010 1 1 0.32 8.13
7:34 am 07:34 Cloudy with Strong Thunderstorms 69 20.6 67 19.4 93 93 SW 20 31 29.77 1008 1 2 0.48 12.19
7:45 am 07:45 Cloudy with Strong Thunderstorms 70 21.1 67 19.4 90 90 SSE 13 20 29.77 1008 2 2 0.58 14.73
7:51 am 07:51 Cloudy with Thunderstorms 70 21 66 19 88 88 SSE 13 20 29.77 1008 3 5 0.59 14.99
7:53 am 07:53 Cloudy with Thunderstorms 70 21.1 67 19.4 90 90 SSE 12 19 29.80 1009 4 6 0.59 14.99
8:01 am 08:01 Cloudy with Thunderstorms 69 20.6 67 19.4 93 93 SSE 12 19 29.77 1008 7 11 0.01 0.25
8:08 am 08:08 Cloudy with Nearby Thunderstorms 70 21.1 68 20 93 93 SE 13 20 29.77 1008 9 14 0.01 0.25
8:18 am 08:18 Cloudy with Light Rain 69 20.6 67 19.4 93 93 SE 9 15 29.80 1009 10 16 0.01 0.25
8:53 am 08:53 Cloudy with Rain 69 20.6 67 19.4 93 93 SSE 10 17 29.77 1008 6 10 0.04 1.02
9:13 am 09:13 Mostly Cloudy with Rain 69 20.6 67 19.4 93 93 SSE 14 22 29.71 1006 7 11 0.04 1.02
9:23 am 09:23 Partly Cloudy with Nearby Thunderstorms 70 21.1 67 19.4 90 90 SE 14 22 29.71 1006 10 16 0.04 1.02
9:38 am 09:38 Mostly Cloudy with Light Rain 71 21.7 67 19.4 87 87 SSE 13 20 29.71 1006 10 16 0.05 1.27
9:53 am 09:53 Mostly Cloudy 72 22.2 68 20 87 87 SE 12 19 29.72 1006 10 16 0.05 1.27
10:53 am 10:53 Sunny 76 24.4 68 20 77 77 SSE 10 17 29.71 1006 10 16 0.00 0.00
11:53 am 11:53 Sunny 82 27.8 70 21.1 67 67 S 10 17 29.71 1006 10 16 0.00 0.00
12:53 pm 12:53 Sunny 83 28.3 71 21.7 67 67 S 18 30 29.72 1006 10 16 0.00 0.00
1:53 pm 13:53 Mostly Sunny 86 30 71 21.7 61 61 S 10 17 29.74 1007 10 16 0.00 0.00
2:53 pm 14:53 Partly Cloudy 88 31.1 73 22.8 61 61 S 9 15 29.72 1007 10 16 0.00 0.00
3:53 pm 15:53 Sunny 89 31.7 72 22.2 57 57 SW 8 13 29.71 1006 10 16 0.00 0.00
4:53 pm 16:53 Sunny 90 32.2 74 23.3 59 59 S 8 13 29.70 1006 10 16 0.00 0.00
5:53 pm 17:53 Sunny 89 31.7 74 23.3 61 61 S 6 9 29.69 1005 10 16 0.00 0.00
6:53 pm 18:53 Sunny 90 32.2 74 23.3 59 59 S 10 17 29.67 1005 10 16 0.00 0.00
7:53 pm 19:53 Partly Cloudy 87 30.6 74 23.3 65 65 SSE 8 13 29.69 1006 10 16 0.00 0.00
8:53 pm 20:53 Mostly Cloudy 84 28.9 75 23.9 74 74 NW 14 22 29.71 1006 10 16 0.00 0.00
9:13 pm 21:13 Mostly Clear 83 28.3 73 22.8 72 72 NW 12 19 29.65 1004 10 16 0.00 0.00
9:53 pm 21:53 Mostly Cloudy 81 27.2 72 22.2 74 74 NW 15 24 29.75 1007 10 16 0.00 0.00
10:53 pm 22:53 Partly Cloudy 79 26.1 70 21.1 74 74 NW 16 26 29.78 1009 10 16 0.00 0.00
11:53 pm 23:53 Clear 76 24.4 70 21.1 82 82 NNW 15 24 29.81 1010 10 16 0.00 0.00

Powered by AerisWeather